Home   Weather   Moscow   Past weeks

Flag for USA Past Weather in Moscow, Idaho, USA — Yesterday and Last 2 Weeks

Now
51 °F

Mostly cloudy.


Feels Like: 51 °F
Forecast: 40 / 54 °F
Wind: No wind

Location: Pullman / Moscow Regional Airport

Current Time: Apr 29, 2017 at 10:42:28 pm

Latest Report: Apr 29, 2017 at 9:53 pm


Visibility: 10 mi

Pressure: 30.12 "Hg (27.42 "Hg at 781m altitude)

Humidity: 61%

Dew Point: 38 °F

Location of MoscowLocation

Past Weather in Moscow — Graph

°F

Moscow Temperature Yesterday

Maximum temperature yesterday: 52 °F (at 1:53 pm)
Minimum temperature yesterday: 36 °F (at 5:53 am)
Average temperature yesterday: 45 °F

High & Low Weather Summary for the Past Weeks

 TemperatureHumidityPressure
High65 °F (Apr 22, 1:53 pm)93% (Apr 17, 5:53 am)30.41 "Hg (Apr 17, 5:53 am)
Low35 °F (Apr 14, 11:53 pm)29% (Apr 22, 1:53 pm)29.69 "Hg (Apr 24, 1:03 pm)
Average47 °F70%30.01 "Hg
* Reported Apr 14 8:53 pm — Apr 29 8:53 pm, Moscow, Weather by CustomWeather, © 2017

Note: Actual official high and low records may vary slightly from our data, if they occured in-between our weather recording intervals... More about our weather records

Advertising

Moscow Weather History for the Previous 24 Hours

Scroll right to see more
 ConditionsComfort  
Time TempWeatherWind HumidityBarometerVisibility
8:53 pm
Sat, Apr 29
51 °FOvercast.3 mph56%30.13 "Hg10 mi
7:53 pm52 °FOvercast.6 mph49%30.13 "Hg10 mi
6:53 pm54 °FOvercast.9 mph37%30.14 "Hg10 mi
5:53 pm55 °FOvercast.7 mph51%30.17 "Hg10 mi
4:53 pm56 °FPassing clouds.8 mph53%30.17 "Hg10 mi
3:53 pm59 °FPassing clouds.N/A41%30.17 "Hg10 mi
2:53 pm58 °FPassing clouds.8 mph39%30.19 "Hg10 mi
1:53 pm57 °FPartly sunny.7 mph41%30.20 "Hg10 mi
12:53 pm56 °FScattered clouds.8 mph44%30.23 "Hg10 mi
11:53 am55 °FPassing clouds.8 mph51%30.25 "Hg10 mi
10:53 am53 °FSunny.6 mph56%30.28 "Hg10 mi
9:53 am51 °FSunny.8 mph59%30.28 "Hg10 mi
8:53 am48 °FSunny.9 mph66%30.29 "Hg10 mi
7:53 am44 °FSunny.10 mph76%30.30 "Hg10 mi
6:53 am41 °FPassing clouds.9 mph80%30.29 "Hg10 mi
5:53 am38 °FSunny.7 mph86%30.30 "Hg10 mi
4:53 am39 °FClear.8 mph86%30.29 "Hg10 mi
3:53 am39 °FClear.6 mph82%30.28 "Hg10 mi
2:53 am39 °FClear.6 mph82%30.29 "Hg10 mi
1:53 am40 °FClear.6 mph83%30.28 "Hg10 mi
12:53 am40 °FClear.8 mph83%30.28 "Hg10 mi
11:53 pm
Fri, Apr 28
42 °FClear.9 mph79%30.27 "Hg10 mi
10:53 pm43 °FClear.9 mph79%30.27 "Hg10 mi
Weather by CustomWeather, © 2017

See weather overviewHow to use our weather pages